Location: Sungai Puan
(2.6500°N, 113.7333°E)
Time: 12:14:06
(UTC+00:00)

Daily predictions for brighter satellites

Satellite Brightness Start Highest point End
(mag) Time Altitude Azimuth Time Altitude Azimuth Time Altitude Azimuth
ISS -2.1 12:00:56 10° NNW 12:02:44 29° NNW 12:02:44 29° NNW
ATLAS CENTAUR R/B 3.9 12:01:57 10° WNW 12:05:37 23° WSW 12:09:23 10° SSW
Cosmos 1833 4.0 12:01:09 10° S 12:06:43 64° ESE 12:07:26 58° ENE
Cosmos 1891 Rocket 4.4 12:01:00 10° S 12:07:17 89° W 12:13:41 10° N
YAOGAN 1 4.5 12:11:34 10° SSW 12:15:17 29° WSW 12:19:01 10° NW
PAYLOAD A 3.7 12:13:37 10° W 12:17:13 67° S 12:17:23 66° S
CZ-4C R/B 4.4 12:16:16 10° WSW 12:19:06 17° WNW 12:22:02 10° NNW
Meteor 1-21 Rocket 4.2 12:19:48 10° N 12:25:19 77° W 12:25:40 73° SW
CSL-04 Rocket 4.0 12:27:40 51° SSW 12:28:46 62° WSW 12:34:02 10° NNW
ARIANE 5 R/B 2.8 12:16:22 10° W 12:30:33 78° W 12:30:33 78° W
ARIANE 5 R/B 4.3 12:47:45 10° W 12:51:14 24° W 12:51:14 24° W
Cosmos 1980 Rocket 4.1 12:57:38 10° NNW 12:59:38 22° NNW 12:59:38 22° NNW
ATLAS 2AS CENTAUR R/B 4.2 13:05:36 10° SW 13:12:24 36° WNW 13:19:26 10° N
Cosmos 1943 Rocket 3.3 20:02:40 41° E 20:02:40 41° E 20:07:32 10° NE
Meteor 1-23 Rocket 4.3 20:22:54 72° ESE 20:22:58 72° E 20:28:32 10° N
ARIANE 5 R/B 4.2 20:25:36 59° WSW 20:27:14 77° S 21:09:27 10° E
ARIANE 5 R/B 4.2 20:25:36 59° WSW 20:27:14 77° S 21:09:28 10° E
ARIANE 5 R/B 4.2 20:25:35 59° WSW 20:27:14 77° S 21:09:27 10° E
METEOR-M 4.1 20:26:39 10° NNE 20:31:59 80° ESE 20:32:48 64° S
Cosmos 1934 Rocket 4.3 20:33:10 10° N 20:39:21 65° E 20:45:26 10° SSE
ARIANE 5 R/B 3.6 20:36:42 46° W 20:39:25 81° S 20:42:58 10° E
ARIANE 5 R/B 4.2 20:45:26 16° ENE 20:45:26 16° ENE 20:46:23 10° ENE
Cosmos 372 Rocket 4.1 20:48:08 55° NW 20:48:08 55° NW 20:52:44 10° N
Cosmos 1727 Rocket 4.0 20:43:16 10° S 20:49:27 81° E 20:55:36 10° N
Cosmos 1674 Rocket 3.7 20:48:37 17° S 20:51:52 68° E 20:56:08 10° N
CZ-4B R/B 4.3 20:51:43 10° NNE 20:55:59 69° ESE 21:00:24 10° S
ALOS 4.1 20:53:23 10° NNW 20:54:44 17° NNW 20:54:44 17° NNW
Cosmos 158 Rocket 4.4 20:52:51 10° N 20:57:36 57° ENE 21:02:23 10° SSE
BREEZE M DEB (TANK) 3.7 20:57:22 31° NW 20:57:45 32° NNW 21:06:08 10° NNE
ARIANE 5 R/B 2.0 21:00:22 40° SE 21:00:22 40° SE 21:03:06 10° ESE
ATLAS 2A CENTAUR R/B 3.1 21:00:07 28° SSW 21:02:40 57° SE 21:18:45 10° ENE
Cosmos 1842 3.2 21:01:00 12° S 21:04:33 84° E 21:08:27 10° N
Cosmos 2298 Rocket 4.0 20:59:49 10° S 21:05:08 84° ESE 21:10:27 10° NNE
USA 267 3.4 21:00:16 10° NE 21:06:46 76° SE 21:13:17 10° SSW
Ariane H10 2.4 21:07:19 48° ESE 21:07:19 48° ESE 21:08:53 10° ESE
COSMOS 2406 3.5 21:04:41 10° N 21:10:17 67° ENE 21:15:54 10° SSE
SJ-12 3.8 21:06:49 10° N 21:10:55 86° WNW 21:15:03 10° SSW
Centaur AC-125 1.2 21:11:12 78° W 21:11:19 83° NNW 21:13:31 10° ENE
GENESIS II 4.0 21:09:43 16° NNW 21:12:42 69° WSW 21:16:30 10° SSE
ARIANE 5 DEB (SYLDA) 2.6 21:13:08 33° SSW 21:13:30 34° S 21:15:56 10° ESE
Okean 2 Rocket 4.0 21:09:44 10° N 21:14:00 50° E 21:18:15 10° SSE
BREEZE-M R/B 3.7 21:02:50 10° SW 21:14:32 72° SE 21:18:24 10° NE
H-2A R/B 3.6 21:07:07 10° NW 21:17:41 34° NNE 21:20:59 10° E
Cosmos 923 Rocket 4.2 21:13:35 10° N 21:18:46 75° ENE 21:24:01 10° SSE
ARIANE 5 DEB (SYLDA 5A) 1.9 21:20:18 34° S 21:20:28 35° S 21:22:55 10° ESE
ARIANE 3 DEB 3.5 21:18:56 28° W 21:21:12 90° S 21:29:57 10° E
Cosmos 1833 Rocket 2.7 21:19:01 10° NNW 21:24:39 89° WSW 21:30:17 10° SSE
Cosmos 1733 3.8 21:22:57 10° N 21:26:39 58° E 21:30:20 10° SSE
Cosmos 1656 Rocket 3.6 21:23:29 10° SSW 21:28:56 86° ESE 21:34:20 10° NNE
CZ-4C R/B 3.0 21:25:48 10° SSE 21:29:23 87° ENE 21:32:58 10° N
Meteor 1-21 4.2 21:24:37 10° S 21:30:15 84° W 21:35:57 10° N
Meteor 1-31 Rocket 3.4 21:27:29 10° NNW 21:30:55 32° WNW 21:34:19 10° SW
Cosmos 2369 Rocket 2.5 21:25:57 10° SW 21:31:15 44° WNW 21:36:31 10° N
Milstar 3 Cent rocket 4.3 21:32:02 12° SW 21:33:22 12° SW 21:35:38 10° SSW
Cosmos 1975 Rocket 4.5 21:30:42 10° SSE 21:34:56 42° E 21:39:10 10° NNE
CZ-4B R/B 2.5 21:31:36 10° N 21:35:15 89° W 21:38:51 10° SSW
SWIFT 2.2 21:35:01 15° WNW 21:38:24 79° SSW 21:42:34 10° ESE
GOES 2 Rocket 4.3 21:33:16 12° SW 21:38:27 66° SSE 21:45:56 10° ENE
Sich 1 Rocket 4.1 21:35:47 10° NNW 21:40:02 39° W 21:44:18 10° SSW
ATLAS 3B CENTAUR R/B 2.2 21:39:54 10° NNW 21:41:17 18° NNE 21:42:44 10° E
Meteor 1-15 Rocket 4.2 21:36:04 10° NNW 21:41:35 70° W 21:47:12 10° S
Landsat 5 3.6 21:40:54 10° S 21:44:53 50° WSW 21:49:00 10° NNW
Cosmos 1943 Rocket 3.8 21:44:16 12° W 21:45:46 13° WNW 21:48:19 10° NW
Envisat 3.0 21:41:18 10° N 21:46:21 82° W 21:51:26 10° SSW
ARIANE 5 R/B 4.5 21:44:05 11° WSW 21:47:23 37° SSE 21:53:41 10° E
Cosmos 1766 3.2 21:45:47 10° N 21:49:43 68° W 21:53:40 10° S
Ariane 42L Rocket 0.9 21:49:43 15° SW 21:50:29 28° S 21:51:42 10° ESE
H-2A R/B 2.0 21:46:30 10° SSE 21:50:35 82° E 21:54:40 10° N
GPS 2-14 Rocket1 3.9 21:49:13 11° WSW 21:52:12 25° SSW 21:55:25 10° SE
YAOGAN 6 2.6 21:49:32 10° N 21:53:06 59° W 21:56:43 10° SSW
Cosmos 1300 Rocket 4.5 21:54:23 10° NW 21:58:07 27° W 22:01:51 10° SSW
Cosmos 2112 Rocket 4.0 21:53:43 10° NNW 21:58:59 66° WSW 22:04:17 10° S
Cosmos 1356 Rocket 4.1 21:56:13 10° NNW 21:59:53 31° W 22:03:39 10° SSW
Cosmos 1607 4.1 21:54:56 10° SSW 22:01:11 88° ESE 22:07:34 10° NNE
Cosmos 1461 4.3 21:57:01 10° S 22:01:24 47° ESE 22:05:52 10° NE
Cosmos 1125 Rocket 4.3 21:56:44 10° SW 22:01:25 32° WNW 22:06:04 10° NNW
Okean 1 Rocket 3.5 22:00:33 10° N 22:04:57 70° E 22:09:22 10° S
